| time (UTC) | temp F | wind direction | speed knots | gust knots | rain 1hr in | rain 24hr in | rain mn in | humidity % | barometer mb |
| 20260503224527 | 59 | 223 | 8.7 | 11.3 | 0.00 | 0.00 | 0.00 | 81 | 1016.3 |
| 20260503223026 | 59 | 237 | 6.1 | 10.4 | 0.00 | 0.00 | 0.00 | 80 | 1016.2 |
| 20260503221528 | 59 | 218 | 7.8 | 11.3 | 0.00 | 0.00 | 0.00 | 80 | 1016.1 |
| 20260503220022 | 59 | 214 | 7.0 | 12.2 | 0.00 | 0.00 | 0.00 | 81 | 1016.1 |
| 20260503214525 | 59 | 186 | 6.1 | 12.2 | 0.00 | 0.00 | 0.00 | 82 | 1015.9 |
| 20260503213029 | 59 | 178 | 6.1 | 13.0 | 0.00 | 0.00 | 0.00 | 81 | 1015.9 |
| 20260503211536 | 59 | 215 | 7.0 | 12.2 | 0.00 | 0.00 | 0.00 | 81 | 1015.7 |
| 20260503210018 | 59 | 188 | 6.1 | 13.0 | 0.00 | 0.00 | 0.00 | 82 | 1015.5 |
| 20260503204521 | 59 | 219 | 7.0 | 12.2 | 0.00 | 0.00 | 0.00 | 83 | 1015.4 |
| 20260503203023 | 59 | 230 | 5.2 | 11.3 | 0.00 | 0.00 | 0.00 | 83 | 1015.2 |
| 20260503201525 | 59 | 227 | 4.3 | 10.4 | 0.00 | 0.00 | 0.00 | 82 | 1014.8 |
| 20260503200030 | 60 | 213 | 6.1 | 10.4 | 0.00 | 0.00 | 0.00 | 82 | 1014.8 |
| 20260503194518 | 60 | 195 | 3.5 | 10.4 | 0.00 | 0.00 | 0.00 | 84 | 1014.7 |
| 20260503193035 | 61 | 225 | 6.1 | 10.4 | 0.00 | 0.00 | 0.00 | 82 | 1014.6 |
| 20260503191526 | 61 | 185 | 4.3 | 7.8 | 0.00 | 0.00 | 0.00 | 80 | 1014.4 |
| 20260503190034 | 61 | 206 | 4.3 | 7.0 | 0.00 | 0.00 | 0.00 | 78 | 1014.4 |
| 20260503184529 | 62 | 199 | 5.2 | 10.4 | 0.00 | 0.00 | 0.00 | 76 | 1014.5 |
| 20260503183021 | 63 | 185 | 5.2 | 10.4 | 0.00 | 0.00 | 0.00 | 76 | 1014.4 |
| 20260503181526 | 63 | 175 | 6.1 | 10.4 | 0.00 | 0.00 | 0.00 | 75 | 1014.3 |
| 20260503180026 | 63 | 204 | 5.2 | 11.3 | 0.00 | 0.00 | 0.00 | 75 | 1014.3 |
| 20260503174528 | 64 | 171 | 5.2 | 8.7 | 0.00 | 0.00 | 0.00 | 75 | 1014.3 |
| 20260503173028 | 64 | 157 | 4.3 | 9.6 | 0.00 | 0.00 | 0.00 | 73 | 1014.3 |
| 20260503171526 | 64 | 188 | 4.3 | 8.7 | 0.00 | 0.00 | 0.00 | 72 | 1014.4 |
| 20260503081509 | 61 | 182 | 0.9 | 5.2 | 0.00 | 0.00 | 0.00 | 80 | 1015.3 |
| 20260503071535 | 60 | 184 | 0.9 | 5.2 | 0.00 | 0.00 | 0.00 | 81 | 1015.2 |
| 20260503054526 | 58 | 176 | 1.7 | 3.5 | 0.00 | 0.00 | 0.00 | 85 | 1014.8 |
| 20260503053016 | 58 | 163 | 0.9 | 3.5 | 0.00 | 0.00 | 0.00 | 84 | 1014.7 |
| 20260503051526 | 58 | 172 | 0.9 | 2.6 | 0.00 | 0.00 | 0.00 | 85 | 1014.6 |
| 20260503050028 | 58 | 172 | 0.9 | 3.5 | 0.00 | 0.00 | 0.00 | 85 | 1014.7 |
| 20260503044529 | 58 | 186 | 1.7 | 2.6 | 0.00 | 0.00 | 0.00 | 85 | 1014.7 |
| 20260503043019 | 59 | 201 | 1.7 | 5.2 | 0.00 | 0.00 | 0.00 | 85 | 1014.7 |
| 20260503041524 | 58 | 173 | 0.9 | 3.5 | 0.00 | 0.00 | 0.00 | 85 | 1014.9 |
| 20260503040024 | 58 | 183 | 1.7 | 2.6 | 0.00 | 0.00 | 0.00 | 85 | 1014.8 |
| 20260503034528 | 59 | 183 | 1.7 | 4.3 | 0.00 | 0.00 | 0.00 | 85 | 1014.9 |
| 20260503033023 | 58 | 166 | 0.9 | 4.3 | 0.00 | 0.00 | 0.00 | 85 | 1014.9 |
| 20260503031523 | 58 | 176 | 0.9 | 4.3 | 0.00 | 0.00 | 0.00 | 85 | 1015.0 |
| 20260503030025 | 58 | 176 | 2.6 | 3.5 | 0.00 | 0.00 | 0.00 | 85 | 1015.1 |
| 20260503024526 | 59 | 186 | 1.7 | 2.6 | 0.00 | 0.00 | 0.00 | 85 | 1015.1 |
| 20260503023025 | 59 | 180 | 1.7 | 4.3 | 0.00 | 0.00 | 0.00 | 85 | 1015.1 |
| 20260503021518 | 59 | 181 | 0.9 | 4.3 | 0.00 | 0.00 | 0.00 | 85 | 1015.2 |
| 20260503020024 | 59 | 179 | 2.6 | 3.5 | 0.00 | 0.00 | 0.00 | 86 | 1015.3 |
| 20260503014524 | 59 | 184 | 1.7 | 4.3 | 0.00 | 0.00 | 0.00 | 86 | 1015.3 |
| 20260503013026 | 59 | 186 | 3.5 | 6.1 | 0.00 | 0.00 | 0.00 | 87 | 1015.5 |
| 20260503011529 | 59 | 186 | 2.6 | 3.5 | 0.00 | 0.00 | 0.00 | 87 | 1015.7 |
| 20260503010025 | 59 | 175 | 1.7 | 4.3 | 0.00 | 0.00 | 0.00 | 87 | 1015.7 |
| 20260503004507 | 59 | 183 | 1.7 | 3.5 | 0.00 | 0.00 | 0.00 | 88 | 1015.8 |
| 20260503003027 | 59 | 187 | 1.7 | 5.2 | 0.00 | 0.00 | 0.00 | 88 | 1016.1 |
| 20260503001527 | 60 | 174 | 1.7 | 4.3 | 0.00 | 0.00 | 0.00 | 88 | 1016.1 |
| 20260503000017 | 60 | 178 | 2.6 | 5.2 | 0.00 | 0.00 | 0.00 | 88 | 1016.3 |
| 20260502234533 | 60 | 194 | 2.6 | 5.2 | 0.00 | 0.00 | 0.00 | 89 | 1016.2 |
| 20260502233006 | 60 | 184 | 1.7 | 6.1 | 0.00 | 0.00 | 0.00 | 89 | 1016.4 |
| 20260502231511 | 60 | 184 | 2.6 | 6.1 | 0.00 | 0.00 | 0.00 | 89 | 1016.5 |
| 20260502230022 | 60 | 186 | 2.6 | 4.3 | 0.00 | 0.00 | 0.00 | 89 | 1016.5 |